owner,sensor,date,latitude,longitude,vertical_datum,wind_speed,wind_to_direction,wind_speed_of_gust,qcFlag 
TABS,ioos:station:wmo:42043:1,2009-07-01T00:00:00Z,28.9818,-94.9186,4.0,3.709083445,195.1604557,4.65,'11111222,11111222,11111222' 
TABS,ioos:station:wmo:42043:1,2009-07-01T00:30:00Z,28.9818,-94.9186,4.0,3.609764535,192.8044466,4.57,'11111222,11111222,11111222' 
TABS,ioos:station:wmo:42043:1,2009-07-01T01:00:00Z,28.9818,-94.9186,4.0,2.847033544,204.0443775,3.69,'11111222,11111222,11111222' 
TABS,ioos:station:wmo:42043:1,2009-07-01T01:30:00Z,28.9818,-94.9186,4.0,3.068436084,205.4795519,3.85,'11111222,11111222,11111222' 
TABS,ioos:station:wmo:42043:1,2009-07-01T02:00:00Z,28.9818,-94.9186,4.0,3.308473968,219.8500349,4.12,'11111222,11111222,11111222' 
TABS,ioos:station:wmo:42043:1,2009-07-01T02:30:00Z,28.9818,-94.9186,4.0,3.675608793,228.1982703,4.69,'11111222,11111222,11111222' 
TABS,ioos:station:wmo:42043:1,2009-07-01T03:00:00Z,28.9818,-94.9186,4.0,2.854277492,228.2665366,3.79,'11111222,11111222,11111222' 
TABS,ioos:station:wmo:42043:1,2009-07-01T03:30:00Z,28.9818,-94.9186,4.0,3.34462255,224.878973,4.23,'11111222,11111222,11111222' 
TABS,ioos:station:wmo:42043:1,2009-07-01T04:00:00Z,28.9818,-94.9186,4.0,3.372002372,216.8020556,4.25,'11111222,11111222,11111222' 
TABS,ioos:station:wmo:42043:1,2009-07-01T04:30:00Z,28.9818,-94.9186,4.0,3.773221435,231.6722896,4.66,'11111222,11111222,11111222' 
TABS,ioos:station:wmo:42043:1,2009-07-01T05:00:00Z,28.9818,-94.9186,4.0,4.04783893,252.0127074,5.07,'11111222,11111222,11111222' 
TABS,ioos:station:wmo:42043:1,2009-07-01T05:30:00Z,28.9818,-94.9186,4.0,2.077811349,274.9697291,3.15,'11111222,11111222,11111222' 
TABS,ioos:station:wmo:42043:1,2009-07-01T06:00:00Z,28.9818,-94.9186,4.0,2.891712296,204.0833503,3.56,'11111222,11111222,11111222' 
TABS,ioos:station:wmo:42043:1,2009-07-01T06:30:00Z,28.9818,-94.9186,4.0,3.431107693,235.568961,4.24,'11111222,11111222,11111222' 
TABS,ioos:station:wmo:42043:1,2009-07-01T07:00:00Z,28.9818,-94.9186,4.0,3.45210081,223.3568284,4.33,'11111222,11111222,11111222' 
TABS,ioos:station:wmo:42043:1,2009-07-01T07:30:00Z,28.9818,-94.9186,4.0,3.578658967,223.8679276,4.28,'11111222,11111222,11111222' 
TABS,ioos:station:wmo:42043:1,2009-07-01T08:00:00Z,28.9818,-94.9186,4.0,2.969983165,244.4703617,3.64,'11111222,11111222,11111222' 
TABS,ioos:station:wmo:42043:1,2009-07-01T08:30:00Z,28.9818,-94.9186,4.0,2.289803485,297.0126022,3.27,'11111222,11111222,11111222' 
TABS,ioos:station:wmo:42043:1,2009-07-01T09:00:00Z,28.9818,-94.9186,4.0,2.766983918,319.6905683,3.6,'11111222,11111222,11111222' 
TABS,ioos:station:wmo:42043:1,2009-07-01T09:30:00Z,28.9818,-94.9186,4.0,3.067262623,344.1057481,4.14,'11111222,11111222,11111222' 
TABS,ioos:station:wmo:42043:1,2009-07-01T10:00:00Z,28.9818,-94.9186,4.0,2.761322147,340.3180964,3.6,'11111222,11111222,11111222' 
TABS,ioos:station:wmo:42043:1,2009-07-01T10:30:00Z,28.9818,-94.9186,4.0,2.498259394,323.9556388,3.68,'11111222,11111222,11111222' 
TABS,ioos:station:wmo:42043:1,2009-07-01T11:00:00Z,28.9818,-94.9186,4.0,3.056795708,312.8788033,4.13,'11111222,11111222,11111222' 
TABS,ioos:station:wmo:42043:1,2009-07-01T11:30:00Z,28.9818,-94.9186,4.0,3.186361561,307.7329574,3.96,'11111222,11111222,11111222' 
TABS,ioos:station:wmo:42043:1,2009-07-01T12:00:00Z,28.9818,-94.9186,4.0,3.976128771,306.4086894,5.14,'11111222,11111222,11111222' 
TABS,ioos:station:wmo:42043:1,2009-07-01T12:30:00Z,28.9818,-94.9186,4.0,3.843032657,312.5744572,4.95,'11111222,11111222,11111222' 
TABS,ioos:station:wmo:42043:1,2009-07-01T13:00:00Z,28.9818,-94.9186,4.0,3.54276728,311.3379678,4.57,'11111222,11111222,11111222' 
TABS,ioos:station:wmo:42043:1,2009-07-01T13:30:00Z,28.9818,-94.9186,4.0,2.39827021,298.3815927,3.26,'11111222,11111222,11111222' 
TABS,ioos:station:wmo:42043:1,2009-07-01T14:00:00Z,28.9818,-94.9186,4.0,2.734264069,306.0735077,3.27,'11111222,11111222,11111222' 
TABS,ioos:station:wmo:42043:1,2009-07-01T14:30:00Z,28.9818,-94.9186,4.0,2.199931817,283.4045312,3.05,'11111222,11111222,11111222' 
TABS,ioos:station:wmo:42043:1,2009-07-01T15:00:00Z,28.9818,-94.9186,4.0,1.992510979,267.1232417,2.54,'11111222,11111222,11111222' 
TABS,ioos:station:wmo:42043:1,2009-07-01T15:30:00Z,28.9818,-94.9186,4.0,2.150209292,270.7994222,2.79,'11111222,11111222,11111222' 
TABS,ioos:station:wmo:42043:1,2009-07-01T16:00:00Z,28.9818,-94.9186,4.0,2.413379373,260.4596405,3.08,'11111222,11111222,11111222' 
TABS,ioos:station:wmo:42043:1,2009-07-01T16:30:00Z,28.9818,-94.9186,4.0,2.485196169,230.2240406,3.16,'11111222,11111222,11111222' 
TABS,ioos:station:wmo:42043:1,2009-07-01T17:00:00Z,28.9818,-94.9186,4.0,1.3,247.3801879,1.92,'11111222,11111222,11111222' 
TABS,ioos:station:wmo:42043:1,2009-07-01T17:30:00Z,28.9818,-94.9186,4.0,1.168674463,246.2864606,1.6,'11111222,11111222,11111222' 
TABS,ioos:station:wmo:42043:1,2009-07-01T18:00:00Z,28.9818,-94.9186,4.0,1.282263623,218.0318648,2.18,'11111222,11111222,11111222' 
TABS,ioos:station:wmo:42043:1,2009-07-01T18:30:00Z,28.9818,-94.9186,4.0,2.705993348,183.8142764,3.89,'11111222,11111222,11111222' 
TABS,ioos:station:wmo:42043:1,2009-07-01T19:00:00Z,28.9818,-94.9186,4.0,4.142378544,184.4307305,5.14,'11111222,11111222,11111222' 
TABS,ioos:station:wmo:42043:1,2009-07-01T19:30:00Z,28.9818,-94.9186,4.0,4.140108694,180.415389,4.77,'11111222,11111222,11111222' 
TABS,ioos:station:wmo:42043:1,2009-07-01T20:00:00Z,28.9818,-94.9186,4.0,3.233481096,166.9524988,3.97,'11111222,11111222,11111222' 
TABS,ioos:station:wmo:42043:1,2009-07-01T20:30:00Z,28.9818,-94.9186,4.0,2.26737734,158.5273246,3.04,'11111222,11111222,11111222' 
TABS,ioos:station:wmo:42043:1,2009-07-01T21:00:00Z,28.9818,-94.9186,4.0,2.926055365,149.842508,3.59,'11111222,11111222,11111222' 
TABS,ioos:station:wmo:42043:1,2009-07-01T21:30:00Z,28.9818,-94.9186,4.0,2.789265136,157.6648201,3.83,'11111222,11111222,11111222' 
TABS,ioos:station:wmo:42043:1,2009-07-01T22:00:00Z,28.9818,-94.9186,4.0,3.200531206,162.3578817,3.84,'11111222,11111222,11111222' 
TABS,ioos:station:wmo:42043:1,2009-07-01T22:30:00Z,28.9818,-94.9186,4.0,3.804747035,177.1378119,4.93,'11111222,11111222,11111222' 
TABS,ioos:station:wmo:42043:1,2009-07-02T00:00:00Z,28.9818,-94.9186,4.0,3.625051724,160.1656896,4.66,'11111222,11111222,11111222' 
TABS,ioos:station:wmo:42043:1,2009-07-02T00:30:00Z,28.9818,-94.9186,4.0,2.872716484,174.6071648,4.04,'11111222,11111222,11111222' 
TABS,ioos:station:wmo:42043:1,2009-07-02T01:00:00Z,28.9818,-94.9186,4.0,2.163353878,173.6307861,2.79,'11111222,11111222,11111222' 
TABS,ioos:station:wmo:42043:1,2009-07-02T01:30:00Z,28.9818,-94.9186,4.0,2.835559909,152.7122863,3.64,'11111222,11111222,11111222' 
TABS,ioos:station:wmo:42043:1,2009-07-02T02:00:00Z,28.9818,-94.9186,4.0,2.542321773,157.5710943,3.43,'11111222,11111222,11111222' 
TABS,ioos:station:wmo:42043:1,2009-07-02T02:30:00Z,28.9818,-94.9186,4.0,3.070195434,175.3295671,3.97,'11111222,11111222,11111222' 
TABS,ioos:station:wmo:42043:1,2009-07-02T03:00:00Z,28.9818,-94.9186,4.0,3.531118803,175.4521787,4.36,'11111222,11111222,11111222' 
TABS,ioos:station:wmo:42043:1,2009-07-02T03:30:00Z,28.9818,-94.9186,4.0,3.800013158,171.6782183,4.95,'11111222,11111222,11111222' 
TABS,ioos:station:wmo:42043:1,2009-07-02T04:00:00Z,28.9818,-94.9186,4.0,4.413762567,171.9252014,5.38,'11111222,11111222,11111222' 
TABS,ioos:station:wmo:42043:1,2009-07-02T04:30:00Z,28.9818,-94.9186,4.0,4.402465218,172.0357742,5.53,'11111222,11111222,11111222' 
TABS,ioos:station:wmo:42043:1,2009-07-02T05:00:00Z,28.9818,-94.9186,4.0,4.750010526,180.1208327,6.05,'11111222,11111222,11111222' 
TABS,ioos:station:wmo:42043:1,2009-07-02T05:30:00Z,28.9818,-94.9186,4.0,4.241344127,184.1916889,5.18,'11111222,11111222,11111222' 
TABS,ioos:station:wmo:42043:1,2009-07-02T06:00:00Z,28.9818,-94.9186,4.0,4.42901795,185.3117482,5.31,'11111222,11111222,11111222' 
TABS,ioos:station:wmo:42043:1,2009-07-02T06:30:00Z,28.9818,-94.9186,4.0,4.002811512,190.945181,5.01,'11111222,11111222,11111222' 
TABS,ioos:station:wmo:42043:1,2009-07-02T07:00:00Z,28.9818,-94.9186,4.0,3.853154552,200.0340868,4.98,'11111222,11111222,11111222' 
TABS,ioos:station:wmo:42043:1,2009-07-02T07:30:00Z,28.9818,-94.9186,4.0,3.504083332,199.1590298,4.92,'11111222,11111222,11111222' 
TABS,ioos:station:wmo:42043:1,2009-07-02T08:00:00Z,28.9818,-94.9186,4.0,3.511765938,205.1057536,4.54,'11111222,11111222,11111222' 
TABS,ioos:station:wmo:42043:1,2009-07-02T08:30:00Z,28.9818,-94.9186,4.0,3.13081459,207.3836531,4.34,'11111222,11111222,11111222' 
TABS,ioos:station:wmo:42043:1,2009-07-02T09:00:00Z,28.9818,-94.9186,4.0,3.440014535,207.9060751,4.45,'11111222,11111222,11111222' 
TABS,ioos:station:wmo:42043:1,2009-07-02T09:30:00Z,28.9818,-94.9186,4.0,3.106283954,233.9049054,4.55,'11111222,11111222,11111222' 
TABS,ioos:station:wmo:42043:1,2009-07-02T10:00:00Z,28.9818,-94.9186,4.0,3.060147055,232.5684846,3.96,'11111222,11111222,11111222' 
TABS,ioos:station:wmo:42043:1,2009-07-02T10:30:00Z,28.9818,-94.9186,4.0,3.361547263,255.8811117,4.44,'11111222,11111222,11111222' 
TABS,ioos:station:wmo:42043:1,2009-07-02T11:00:00Z,28.9818,-94.9186,4.0,3.476665069,264.3878099,4.33,'11111222,11111222,11111222' 
TABS,ioos:station:wmo:42043:1,2009-07-02T11:30:00Z,28.9818,-94.9186,4.0,2.977247051,276.1701607,3.96,'11111222,11111222,11111222' 
TABS,ioos:station:wmo:42043:1,2009-07-02T12:00:00Z,28.9818,-94.9186,4.0,2.030664916,297.5744995,2.9,'11111222,11111222,11111222' 
TABS,ioos:station:wmo:42043:1,2009-07-02T12:30:00Z,28.9818,-94.9186,4.0,2.490983741,333.5376651,3.5,'11111222,11111222,11111222' 
TABS,ioos:station:wmo:42043:1,2009-07-02T13:00:00Z,28.9818,-94.9186,4.0,2.542833066,330.813942,3.42,'11111222,11111222,11111222' 
TABS,ioos:station:wmo:42043:1,2009-07-02T13:30:00Z,28.9818,-94.9186,4.0,2.773084925,348.770924,3.54,'11111222,11111222,11111222' 
TABS,ioos:station:wmo:42043:1,2009-07-02T14:00:00Z,28.9818,-94.9186,4.0,2.628193296,347.9202868,3.39,'11111222,11111222,11111222' 
TABS,ioos:station:wmo:42043:1,2009-07-02T14:30:00Z,28.9818,-94.9186,4.0,2.682685222,357.4360253,3.69,'11111222,11111222,11111222' 
TABS,ioos:station:wmo:42043:1,2009-07-02T15:00:00Z,28.9818,-94.9186,4.0,1.618950277,353.9722733,2.37,'11111222,11111222,11111222' 
TABS,ioos:station:wmo:42043:1,2009-07-02T15:30:00Z,28.9818,-94.9186,4.0,1.00895986,13.76054247,1.71,'11111222,11111222,11111222' 
TABS,ioos:station:wmo:42043:1,2009-07-02T16:00:00Z,28.9818,-94.9186,4.0,0.379473319,71.56467337,0.9,'11111222,11111222,11111222' 
TABS,ioos:station:wmo:42043:1,2009-07-02T16:30:00Z,28.9818,-94.9186,4.0,0.410487515,182.7929063,0.81,'11111222,11111222,11111222' 
TABS,ioos:station:wmo:42043:1,2009-07-02T17:00:00Z,28.9818,-94.9186,4.0,0.747328576,114.5077688,1.54,'11111222,11111222,11111222' 
TABS,ioos:station:wmo:42043:1,2009-07-02T17:30:00Z,28.9818,-94.9186,4.0,0.993227064,94.6203336,1.72,'11111222,11111222,11111222' 
TABS,ioos:station:wmo:42043:1,2009-07-02T18:00:00Z,28.9818,-94.9186,4.0,0.945304184,96.07286312,1.55,'11111222,11111222,11111222' 
TABS,ioos:station:wmo:42043:1,2009-07-02T18:30:00Z,28.9818,-94.9186,4.0,1.745422585,114.362817,3.12,'11111222,11111222,11111222' 
TABS,ioos:station:wmo:42043:1,2009-07-02T19:00:00Z,28.9818,-94.9186,4.0,2.446957294,134.0068492,3.65,'11111222,11111222,11111222' 
TABS,ioos:station:wmo:42043:1,2009-07-02T19:30:00Z,28.9818,-94.9186,4.0,2.456013029,142.9437689,3.52,'11111222,11111222,11111222' 
TABS,ioos:station:wmo:42043:1,2009-07-02T20:00:00Z,28.9818,-94.9186,4.0,4.036087214,138.0130961,5.34,'11111222,11111222,11111222' 
TABS,ioos:station:wmo:42043:1,2009-07-02T20:30:00Z,28.9818,-94.9186,4.0,3.734514694,142.1791394,5.04,'11111222,11111222,11111222' 
TABS,ioos:station:wmo:42043:1,2009-07-02T21:00:00Z,28.9818,-94.9186,4.0,3.698553771,142.1389022,5.23,'11111222,11111222,11111222' 
TABS,ioos:station:wmo:42043:1,2009-07-02T21:30:00Z,28.9818,-94.9186,4.0,4.516857315,142.0140618,5.51,'11111222,11111222,11111222' 
TABS,ioos:station:wmo:42043:1,2009-07-02T22:00:00Z,28.9818,-94.9186,4.0,5.405783939,145.7810825,6.66,'11111222,11111222,11111222' 
TABS,ioos:station:wmo:42043:1,2009-07-02T22:30:00Z,28.9818,-94.9186,4.0,5.222882346,142.0772082,6.81,'11111222,11111222,11111222' 
TABS,ioos:station:wmo:42043:1,2009-07-02T23:00:00Z,28.9818,-94.9186,4.0,4.871550061,160.0774407,6.04,'11111222,11111222,11111222' 
TABS,ioos:station:wmo:42043:1,2009-07-02T23:30:00Z,28.9818,-94.9186,4.0,4.600662996,155.607847,5.8,'11111222,11111222,11111222' 
TABS,ioos:station:wmo:42043:1,2009-07-03T00:00:00Z,28.9818,-94.9186,4.0,4.220011848,142.9946276,5.05,'11111222,11111222,11111222' 
TABS,ioos:station:wmo:42043:1,2009-07-03T00:30:00Z,28.9818,-94.9186,4.0,4.055317497,155.8369423,4.94,'11111222,11111222,11111222' 
TABS,ioos:station:wmo:42043:1,2009-07-03T01:00:00Z,28.9818,-94.9186,4.0,4.584811883,154.5530434,5.43,'11111222,11111222,11111222' 
TABS,ioos:station:wmo:42043:1,2009-07-03T01:30:00Z,28.9818,-94.9186,4.0,4.152168108,158.3782206,4.69,'11111222,11111222,11111222' 
TABS,ioos:station:wmo:42043:1,2009-07-03T02:00:00Z,28.9818,-94.9186,4.0,4.042091043,144.9734349,5.29,'11111222,11111222,11111222' 
TABS,ioos:station:wmo:42043:1,2009-07-03T02:30:00Z,28.9818,-94.9186,4.0,3.988483421,146.8680198,5.16,'11111222,11111222,11111222' 
TABS,ioos:station:wmo:42043:1,2009-07-03T03:00:00Z,28.9818,-94.9186,4.0,3.752146053,153.2303511,4.71,'11111222,11111222,11111222' 
TABS,ioos:station:wmo:42043:1,2009-07-03T03:30:00Z,28.9818,-94.9186,4.0,4.370560605,160.9019984,5.4,'11111222,11111222,11111222' 
TABS,ioos:station:wmo:42043:1,2009-07-03T04:00:00Z,28.9818,-94.9186,4.0,3.893507416,149.9451036,5.13,'11111222,11111222,11111222' 
TABS,ioos:station:wmo:42043:1,2009-07-03T04:30:00Z,28.9818,-94.9186,4.0,4.380159814,149.3954607,5.84,'11111222,11111222,11111222' 
TABS,ioos:station:wmo:42043:1,2009-07-03T05:00:00Z,28.9818,-94.9186,4.0,5.235513346,150.3504163,6.58,'11111222,11111222,11111222' 
TABS,ioos:station:wmo:42043:1,2009-07-03T05:30:00Z,28.9818,-94.9186,4.0,4.892484032,156.8939376,6.54,'11111222,11111222,11111222' 
TABS,ioos:station:wmo:42043:1,2009-07-03T06:00:00Z,28.9818,-94.9186,4.0,4.838698172,162.3142248,6.35,'11111222,11111222,11111222' 
TABS,ioos:station:wmo:42043:1,2009-07-03T06:30:00Z,28.9818,-94.9186,4.0,3.853894135,171.3444937,5.29,'11111222,11111222,11111222' 
TABS,ioos:station:wmo:42043:1,2009-07-03T07:00:00Z,28.9818,-94.9186,4.0,3.919502519,166.4249078,5.49,'11111222,11111222,11111222' 
TABS,ioos:station:wmo:42043:1,2009-07-03T07:30:00Z,28.9818,-94.9186,4.0,3.485584599,169.7541981,4.28,'11111222,11111222,11111222' 
TABS,ioos:station:wmo:42043:1,2009-07-03T08:00:00Z,28.9818,-94.9186,4.0,3.799605243,175.9253468,4.97,'11111222,11111222,11111222' 
TABS,ioos:station:wmo:42043:1,2009-07-03T08:30:00Z,28.9818,-94.9186,4.0,3.789261142,172.8752108,5.04,'11111222,11111222,11111222' 
TABS,ioos:station:wmo:42043:1,2009-07-03T09:00:00Z,28.9818,-94.9186,4.0,3.560898763,178.7128845,4.63,'11111222,11111222,11111222' 
TABS,ioos:station:wmo:42043:1,2009-07-03T09:30:00Z,28.9818,-94.9186,4.0,3.650493117,179.0584491,4.85,'11111222,11111222,11111222' 
TABS,ioos:station:wmo:42043:1,2009-07-03T10:00:00Z,28.9818,-94.9186,4.0,4.660815379,185.4172199,5.64,'11111222,11111222,11111222' 
TABS,ioos:station:wmo:42043:1,2009-07-03T10:30:00Z,28.9818,-94.9186,4.0,4.892616887,181.874246,6.4,'11111222,11111222,11111222' 
TABS,ioos:station:wmo:42043:1,2009-07-03T11:00:00Z,28.9818,-94.9186,4.0,4.571925196,184.13939,5.87,'11111222,11111222,11111222' 
TABS,ioos:station:wmo:42043:1,2009-07-03T11:30:00Z,28.9818,-94.9186,4.0,3.988483421,183.7378313,5.13,'11111222,11111222,11111222' 
TABS,ioos:station:wmo:42043:1,2009-07-03T12:00:00Z,28.9818,-94.9186,4.0,4.503620766,175.5429708,5.87,'11111222,11111222,11111222' 
TABS,ioos:station:wmo:42043:1,2009-07-03T12:30:00Z,28.9818,-94.9186,4.0,3.67887211,172.8172584,4.53,'11111222,11111222,11111222' 
TABS,ioos:station:wmo:42043:1,2009-07-03T13:00:00Z,28.9818,-94.9186,4.0,3.675268698,191.6158534,4.88,'11111222,11111222,11111222' 
TABS,ioos:station:wmo:42043:1,2009-07-03T13:30:00Z,28.9818,-94.9186,4.0,3.490916785,181.3133477,4.77,'11111222,11111222,11111222' 
TABS,ioos:station:wmo:42043:1,2009-07-03T14:00:00Z,28.9818,-94.9186,4.0,3.563200808,196.2989687,4.35,'11111222,11111222,11111222' 
TABS,ioos:station:wmo:42043:1,2009-07-03T14:30:00Z,28.9818,-94.9186,4.0,3.800907786,189.388165,5.26,'11111222,11111222,11111222' 
TABS,ioos:station:wmo:42043:1,2009-07-03T15:00:00Z,28.9818,-94.9186,4.0,2.91756748,184.1277925,3.93,'11111222,11111222,11111222' 
TABS,ioos:station:wmo:42043:1,2009-07-03T15:30:00Z,28.9818,-94.9186,4.0,2.769729229,186.8429679,3.5,'11111222,11111222,11111222' 
TABS,ioos:station:wmo:42043:1,2009-07-03T16:00:00Z,28.9818,-94.9186,4.0,3.534586256,182.9192732,4.27,'11111222,11111222,11111222' 
TABS,ioos:station:wmo:42043:1,2009-07-03T16:30:00Z,28.9818,-94.9186,4.0,2.83270189,170.0391217,3.69,'11111222,11111222,11111222' 
TABS,ioos:station:wmo:42043:1,2009-07-03T17:00:00Z,28.9818,-94.9186,4.0,3.453244851,173.3485476,4.48,'11111222,11111222,11111222' 
TABS,ioos:station:wmo:42043:1,2009-07-03T17:30:00Z,28.9818,-94.9186,4.0,3.72507718,172.1311533,4.75,'11111222,11111222,11111222' 
TABS,ioos:station:wmo:42043:1,2009-07-03T18:00:00Z,28.9818,-94.9186,4.0,3.810013123,179.8498285,4.7,'11111222,11111222,11111222' 
TABS,ioos:station:wmo:42043:1,2009-07-03T18:30:00Z,28.9818,-94.9186,4.0,3.281524036,178.2539329,4.56,'11111222,11111222,11111222' 
TABS,ioos:station:wmo:42043:1,2009-07-03T19:00:00Z,28.9818,-94.9186,4.0,2.912953827,194.5134762,3.96,'11111222,11111222,11111222' 
TABS,ioos:station:wmo:42043:1,2009-07-03T19:30:00Z,28.9818,-94.9186,4.0,3.354310659,194.3264183,4.38,'11111222,11111222,11111222' 
TABS,ioos:station:wmo:42043:1,2009-07-03T20:00:00Z,28.9818,-94.9186,4.0,3.501271198,199.5218951,4.67,'11111222,11111222,11111222' 
TABS,ioos:station:wmo:42043:1,2009-07-03T20:30:00Z,28.9818,-94.9186,4.0,2.415491668,188.3315657,3.28,'11111222,11111222,11111222' 
TABS,ioos:station:wmo:42043:1,2009-07-03T21:00:00Z,28.9818,-94.9186,4.0,1.55724115,148.6579263,2.67,'11111222,11111222,11111222' 
TABS,ioos:station:wmo:42043:1,2009-07-03T21:30:00Z,28.9818,-94.9186,4.0,2.164532282,148.2193697,3.05,'11111222,11111222,11111222' 
TABS,ioos:station:wmo:42043:1,2009-07-03T22:00:00Z,28.9818,-94.9186,4.0,3.342125072,145.9773877,4.33,'11111222,11111222,11111222' 
TABS,ioos:station:wmo:42043:1,2009-07-03T22:30:00Z,28.9818,-94.9186,4.0,3.539745754,148.8699697,4.63,'11111222,11111222,11111222' 
TABS,ioos:station:wmo:42043:1,2009-07-03T23:00:00Z,28.9818,-94.9186,4.0,3.691530848,146.2671747,5.04,'11111222,11111222,11111222' 
TABS,ioos:station:wmo:42043:1,2009-07-03T23:30:00Z,28.9818,-94.9186,4.0,4.52707411,152.076686,5.98,'11111222,11111222,11111222' 
TABS,ioos:station:wmo:42043:1,2009-07-04T00:00:00Z,28.9818,-94.9186,4.0,4.659549334,158.9980618,5.96,'11111222,11111222,11111222' 
TABS,ioos:station:wmo:42043:1,2009-07-04T00:30:00Z,28.9818,-94.9186,4.0,4.573488821,168.3954752,6.14,'11111222,11111222,11111222' 
TABS,ioos:station:wmo:42043:1,2009-07-04T01:00:00Z,28.9818,-94.9186,4.0,4.606777616,159.6771212,6.16,'11111222,11111222,11111222' 
TABS,ioos:station:wmo:42043:1,2009-07-04T01:30:00Z,28.9818,-94.9186,4.0,5.083079775,157.3197039,6.53,'11111222,11111222,11111222' 
TABS,ioos:station:wmo:42043:1,2009-07-04T02:00:00Z,28.9818,-94.9186,4.0,5.064632267,149.6379824,6.43,'11111222,11111222,11111222' 
TABS,ioos:station:wmo:42043:1,2009-07-04T02:30:00Z,28.9818,-94.9186,4.0,4.875448697,152.3840431,5.96,'11111222,11111222,11111222' 
TABS,ioos:station:wmo:42043:1,2009-07-04T03:00:00Z,28.9818,-94.9186,4.0,5.32319453,156.999537,6.68,'11111222,11111222,11111222' 
TABS,ioos:station:wmo:42043:1,2009-07-04T03:30:00Z,28.9818,-94.9186,4.0,5.892614021,147.6857003,7.35,'11111222,11111222,11111222' 
TABS,ioos:station:wmo:42043:1,2009-07-04T04:00:00Z,28.9818,-94.9186,4.0,6.067824981,156.3925151,7.45,'11111222,11111222,11111222' 
TABS,ioos:station:wmo:42043:1,2009-07-04T04:30:00Z,28.9818,-94.9186,4.0,6.269322132,157.6897216,7.88,'11111222,11111222,11111222' 
TABS,ioos:station:wmo:42043:1,2009-07-04T05:00:00Z,28.9818,-94.9186,4.0,6.272838273,166.9166238,7.77,'11111222,11111222,11111222' 
TABS,ioos:station:wmo:42043:1,2009-07-04T05:30:00Z,28.9818,-94.9186,4.0,6.374590183,169.6069565,8.08,'11111222,11111222,11111222' 
TABS,ioos:station:wmo:42043:1,2009-07-04T06:00:00Z,28.9818,-94.9186,4.0,6.683838717,162.9479411,8.33,'11111222,11111222,11111222' 
TABS,ioos:station:wmo:42043:1,2009-07-04T06:30:00Z,28.9818,-94.9186,4.0,6.165427803,165.5357555,8.11,'11111222,11111222,11111222' 
TABS,ioos:station:wmo:42043:1,2009-07-04T07:00:00Z,28.9818,-94.9186,4.0,6.084159761,172.3495774,7.58,'11111222,11111222,11111222' 
TABS,ioos:station:wmo:42043:1,2009-07-04T07:30:00Z,28.9818,-94.9186,4.0,5.807064663,174.4663473,7.38,'11111222,11111222,11111222' 
TABS,ioos:station:wmo:42043:1,2009-07-04T08:00:00Z,28.9818,-94.9186,4.0,5.878817908,175.4146418,7.4,'11111222,11111222,11111222' 
TABS,ioos:station:wmo:42043:1,2009-07-04T08:30:00Z,28.9818,-94.9186,4.0,6.508371532,182.906571,8.14,'11111222,11111222,11111222' 
TABS,ioos:station:wmo:42043:1,2009-07-04T09:00:00Z,28.9818,-94.9186,4.0,6.707726888,192.0472128,9.19,'11111222,11111222,11111222' 
TABS,ioos:station:wmo:42043:1,2009-07-04T09:30:00Z,28.9818,-94.9186,4.0,6.97603039,198.6428964,9.09,'11111222,11111222,11111222' 
TABS,ioos:station:wmo:42043:1,2009-07-04T10:00:00Z,28.9818,-94.9186,4.0,6.669370285,198.0819469,8.63,'11111222,11111222,11111222' 
TABS,ioos:station:wmo:42043:1,2009-07-04T10:30:00Z,28.9818,-94.9186,4.0,7.098034939,195.1915766,10.0,'11111222,11111222,11111222' 
TABS,ioos:station:wmo:42043:1,2009-07-04T11:00:00Z,28.9818,-94.9186,4.0,6.844223842,197.4291038,8.91,'11111222,11111222,11111222' 
TABS,ioos:station:wmo:42043:1,2009-07-04T11:30:00Z,28.9818,-94.9186,4.0,7.105385282,202.5952111,9.02,'11111222,11111222,11111222' 
TABS,ioos:station:wmo:42043:1,2009-07-04T12:00:00Z,28.9818,-94.9186,4.0,6.401827864,199.6238868,8.84,'11111222,11111222,11111222' 
TABS,ioos:station:wmo:42043:1,2009-07-04T12:30:00Z,28.9818,-94.9186,4.0,7.062188046,205.7669584,9.37,'11111222,11111222,11111222' 
TABS,ioos:station:wmo:42043:1,2009-07-04T13:00:00Z,28.9818,-94.9186,4.0,6.990886925,200.6905015,9.36,'11111222,11111222,11111222' 
TABS,ioos:station:wmo:42043:1,2009-07-04T13:30:00Z,28.9818,-94.9186,4.0,6.943961405,203.8704879,8.92,'11111222,11111222,11111222' 
TABS,ioos:station:wmo:42043:1,2009-07-04T14:00:00Z,28.9818,-94.9186,4.0,6.429471207,208.3190067,8.74,'11111222,11111222,11111222' 
TABS,ioos:station:wmo:42043:1,2009-07-04T14:30:00Z,28.9818,-94.9186,4.0,6.618194618,211.2162967,8.77,'11111222,11111222,11111222' 
TABS,ioos:station:wmo:42043:1,2009-07-04T15:00:00Z,28.9818,-94.9186,4.0,6.870123725,218.855298,9.07,'11111222,11111222,11111222' 
TABS,ioos:station:wmo:42043:1,2009-07-04T15:30:00Z,28.9818,-94.9186,4.0,7.08876576,218.4705845,9.08,'11111222,11111222,11111222' 
TABS,ioos:station:wmo:42043:1,2009-07-04T16:00:00Z,28.9818,-94.9186,4.0,6.646773653,218.5253053,8.8,'11111222,11111222,11111222' 
TABS,ioos:station:wmo:42043:1,2009-07-04T16:30:00Z,28.9818,-94.9186,4.0,6.08276253,223.6678885,8.52,'11111222,11111222,11111222' 
TABS,ioos:station:wmo:42043:1,2009-07-04T17:00:00Z,28.9818,-94.9186,4.0,6.158327695,222.3676765,7.58,'11111222,11111222,11111222' 
TABS,ioos:station:wmo:42043:1,2009-07-04T17:30:00Z,28.9818,-94.9186,4.0,6.364966614,223.9816233,8.24,'11111222,11111222,11111222' 
TABS,ioos:station:wmo:42043:1,2009-07-04T18:00:00Z,28.9818,-94.9186,4.0,5.716012596,216.7497373,7.58,'11111222,11111222,11111222' 
TABS,ioos:station:wmo:42043:1,2009-07-04T18:30:00Z,28.9818,-94.9186,4.0,5.672812354,217.8396722,7.86,'11111222,11111222,11111222' 
TABS,ioos:station:wmo:42043:1,2009-07-04T19:00:00Z,28.9818,-94.9186,4.0,4.885898075,219.685572,6.24,'11111222,11111222,11111222' 
TABS,ioos:station:wmo:42043:1,2009-07-04T19:30:00Z,28.9818,-94.9186,4.0,5.021951812,220.4776617,6.26,'11111222,11111222,11111222' 